Torna al catalogo

STARLINK-32096

AttivoComunicazioniVLEO
NORAD 59698·PAYLOAD·🇺🇸 United States

Lanciato May 8, 2024 da Cape Canaveral Space Force Station

Loading…

Prossimi Passaggi (prossime 24 ore)

TLE

AggiornatoSource: CelesTrak SupGP

Epoca: Sep 14, 2026, 22:13 UTC

1 59698C 24086S   26257.92618056  .00038542  00000+0  13963-2 0  2578
2 59698  43.0023  71.1584 0001462 272.7313  91.7544 15.27551542    13

Traccia STARLINK-32096 in tempo reale con AllMySat

Download on the App Store